SAS43T ENVA-ENZV

Flight info

Callsign SAS43T
Flight time 1h 1m
Altitude 38000
Route OSMUM DCT OKEXA DCT XAROS DCT ROPNO
Aircraft A319/M-SDE3FGHIRWY/LB1

Departure

Time 2026-04-09 23:32
Airport Trondheim Airport, Værnes (ENVA)

Arrival

Time 2026-04-10 00:34
Airport Stavanger Airport, Sola (ENZV)
Time Latitude Longitude Altitude Speed Heading
2026-04-09 22:56 63.45496 10.91663 39 ft 0 kts 180°
2026-04-09 23:25 63.45501 10.91663 39 ft 2 kts 179°
2026-04-09 23:25 63.45517 10.91663 39 ft 2 kts 184°
2026-04-09 23:25 63.45534 10.91663 39 ft 2 kts 184°
2026-04-09 23:25 63.45548 10.91663 37 ft 1 kts 185°
2026-04-09 23:26 63.45549 10.91663 37 ft 0 kts 182°
2026-04-09 23:27 63.45550 10.91633 39 ft 6 kts 275°
2026-04-09 23:27 63.45572 10.91471 37 ft 14 kts 298°
2026-04-09 23:27 63.45596 10.91231 34 ft 18 kts 278°
2026-04-09 23:28 63.45598 10.90915 35 ft 22 kts 269°
2026-04-09 23:28 63.45597 10.90553 34 ft 25 kts 270°
2026-04-09 23:28 63.45597 10.90140 31 ft 28 kts 270°
2026-04-09 23:28 63.45600 10.89678 29 ft 32 kts 271°
2026-04-09 23:29 63.45600 10.89179 29 ft 28 kts 270°
2026-04-09 23:29 63.45609 10.88822 29 ft 17 kts 291°
2026-04-09 23:29 63.45696 10.88677 29 ft 13 kts 353°
2026-04-09 23:29 63.45769 10.88740 29 ft 9 kts 84°
2026-04-09 23:30 63.45765 10.88819 29 ft 0 kts 90°
2026-04-09 23:31 63.45765 10.89151 29 ft 55 kts 90°
2026-04-09 23:31 63.45763 10.90483 33 ft 114 kts 90°
2026-04-09 23:32 63.45755 10.92591 214 ft 143 kts 89°
2026-04-09 23:32 63.45749 10.94794 825 ft 142 kts 99°
2026-04-09 23:32 63.45721 10.97039 1399 ft 146 kts 97°
2026-04-09 23:32 63.45718 10.99293 1968 ft 151 kts 100°
2026-04-09 23:33 63.45706 11.01816 2310 ft 173 kts 100°
2026-04-09 23:33 63.45688 11.04686 2610 ft 198 kts 100°
2026-04-09 23:33 63.45671 11.07950 3076 ft 220 kts 99°
2026-04-09 23:33 63.45662 11.11445 3852 ft 228 kts 99°
2026-04-09 23:34 63.45657 11.15032 4639 ft 234 kts 97°
2026-04-09 23:34 63.45651 11.18717 5446 ft 240 kts 96°
2026-04-09 23:34 63.45646 11.22480 6437 ft 243 kts 96°
2026-04-09 23:34 63.45640 11.26281 7345 ft 247 kts 95°
2026-04-09 23:35 63.45495 11.30101 8219 ft 246 kts 112°
2026-04-09 23:35 63.44596 11.33253 9049 ft 240 kts 144°
2026-04-09 23:35 63.43092 11.35036 9553 ft 256 kts 169°
2026-04-09 23:35 63.41290 11.35000 10138 ft 267 kts 196°
2026-04-09 23:36 63.39611 11.32910 10488 ft 292 kts 221°
2026-04-09 23:36 63.38144 11.29596 11036 ft 305 kts 225°
2026-04-09 23:36 63.36674 11.26140 11806 ft 310 kts 225°
2026-04-09 23:36 63.35185 11.22618 12611 ft 314 kts 225°
2026-04-09 23:37 63.33675 11.19066 13418 ft 318 kts 224°
2026-04-09 23:37 63.32134 11.15476 14179 ft 322 kts 224°
2026-04-09 23:37 63.30574 11.11870 14904 ft 324 kts 224°
2026-04-09 23:37 63.28998 11.08257 15612 ft 327 kts 224°
2026-04-09 23:38 63.27401 11.04605 16336 ft 330 kts 224°
2026-04-09 23:38 63.25821 11.00988 17043 ft 333 kts 224°
2026-04-09 23:38 63.24197 10.97266 17751 ft 336 kts 224°
2026-04-09 23:38 63.22564 10.93536 18413 ft 340 kts 224°
2026-04-09 23:39 63.20902 10.89755 19015 ft 343 kts 224°
2026-04-09 23:39 63.19225 10.85944 19609 ft 347 kts 224°
2026-04-09 23:39 63.17532 10.82103 20184 ft 351 kts 224°
2026-04-09 23:39 63.15811 10.78199 20767 ft 355 kts 224°
2026-04-09 23:40 63.14084 10.74284 21346 ft 359 kts 224°
2026-04-09 23:40 63.12327 10.70310 21931 ft 362 kts 224°
2026-04-09 23:40 63.10557 10.66312 22497 ft 366 kts 224°
2026-04-09 23:40 63.08770 10.62287 23063 ft 369 kts 224°
2026-04-09 23:41 63.06956 10.58210 23615 ft 373 kts 224°
2026-04-09 23:41 63.05131 10.54125 24087 ft 376 kts 224°
2026-04-09 23:41 63.03283 10.49997 24543 ft 380 kts 224°
2026-04-09 23:41 63.01423 10.45844 25009 ft 383 kts 224°
2026-04-09 23:42 62.99547 10.41658 25478 ft 385 kts 224°
2026-04-09 23:42 62.97828 10.37824 25887 ft 388 kts 224°
2026-04-09 23:42 62.95903 10.33538 26332 ft 392 kts 224°
2026-04-09 23:42 62.93982 10.29278 26754 ft 395 kts 224°
2026-04-09 23:43 62.92031 10.24963 27174 ft 398 kts 224°
2026-04-09 23:43 62.90067 10.20633 27610 ft 401 kts 224°
2026-04-09 23:43 62.88116 10.16342 28029 ft 404 kts 224°
2026-04-09 23:43 62.86122 10.11973 28469 ft 407 kts 223°
2026-04-09 23:44 62.83932 10.08037 28880 ft 409 kts 213°
2026-04-09 23:44 62.81452 10.04942 29304 ft 411 kts 204°
2026-04-09 23:44 62.80253 10.03811 29500 ft 412 kts 202°
2026-04-09 23:45 62.77198 10.01017 29970 ft 416 kts 202°
2026-04-09 23:45 62.74523 9.98555 30345 ft 418 kts 202°
2026-04-09 23:45 62.71833 9.96074 30684 ft 421 kts 202°
2026-04-09 23:45 62.69120 9.93577 31010 ft 424 kts 202°
2026-04-09 23:46 62.66392 9.91076 31332 ft 426 kts 202°
2026-04-09 23:46 62.63654 9.88567 31670 ft 428 kts 202°
2026-04-09 23:46 62.60904 9.86052 32111 ft 428 kts 202°
2026-04-09 23:46 62.58168 9.83555 32570 ft 427 kts 202°
2026-04-09 23:47 62.55428 9.81061 33010 ft 427 kts 202°
2026-04-09 23:47 62.52683 9.78573 33464 ft 426 kts 201°
2026-04-09 23:47 62.49990 9.76138 33901 ft 426 kts 201°
2026-04-09 23:47 62.47253 9.73667 34311 ft 425 kts 201°
2026-04-09 23:48 62.44528 9.71211 34705 ft 425 kts 201°
2026-04-09 23:48 62.41803 9.68755 35107 ft 424 kts 201°
2026-04-09 23:48 62.39082 9.66302 35497 ft 423 kts 201°
2026-04-09 23:48 62.36371 9.63860 35869 ft 422 kts 201°
2026-04-09 23:49 62.33662 9.61430 36205 ft 422 kts 201°
2026-04-09 23:49 62.30955 9.59010 36543 ft 421 kts 201°
2026-04-09 23:49 62.28249 9.56598 36885 ft 421 kts 201°
2026-04-09 23:49 62.26456 9.55004 37079 ft 421 kts 201°
2026-04-09 23:50 62.23748 9.52597 37379 ft 421 kts 201°
2026-04-09 23:50 62.21035 9.50195 37704 ft 421 kts 201°
2026-04-09 23:50 62.18336 9.47808 38006 ft 421 kts 201°
2026-04-09 23:51 62.12912 9.43015 38082 ft 421 kts 201°
2026-04-09 23:51 62.07504 9.38262 38086 ft 420 kts 200°
2026-04-09 23:52 62.02098 9.33532 38085 ft 419 kts 200°
2026-04-09 23:52 61.96688 9.28965 38090 ft 418 kts 198°
2026-04-09 23:53 61.91210 9.24806 38097 ft 418 kts 197°
2026-04-09 23:53 61.85709 9.20747 38102 ft 418 kts 198°
2026-04-09 23:54 61.80229 9.16636 38103 ft 418 kts 198°
2026-04-09 23:54 61.74759 9.12480 38105 ft 417 kts 198°
2026-04-09 23:55 61.69292 9.08352 38105 ft 417 kts 198°
2026-04-09 23:55 61.63823 9.04256 38108 ft 417 kts 198°
2026-04-09 23:56 61.58355 9.00170 38105 ft 417 kts 198°
2026-04-09 23:56 61.52887 8.96087 38111 ft 417 kts 198°
2026-04-09 23:57 61.47414 8.92017 38111 ft 417 kts 198°
2026-04-09 23:57 61.42040 8.88039 38118 ft 417 kts 198°
2026-04-09 23:58 61.36558 8.83990 38113 ft 417 kts 198°
2026-04-09 23:58 61.31121 8.80018 38122 ft 417 kts 198°
2026-04-09 23:59 61.25617 8.75988 38126 ft 416 kts 198°
2026-04-09 23:59 61.20191 8.72027 38132 ft 416 kts 198°
2026-04-10 00:00 61.14725 8.68060 38125 ft 416 kts 198°
2026-04-10 00:00 61.09269 8.64124 38126 ft 416 kts 197°
2026-04-10 00:01 61.03796 8.60182 38128 ft 416 kts 197°
2026-04-10 00:01 60.98333 8.56272 38129 ft 416 kts 197°
2026-04-10 00:02 60.92878 8.52363 38117 ft 415 kts 197°
2026-04-10 00:02 60.87428 8.48468 38089 ft 415 kts 197°
2026-04-10 00:03 60.81977 8.44592 38098 ft 414 kts 197°
2026-04-10 00:03 60.76528 8.40740 38107 ft 414 kts 197°
2026-04-10 00:04 60.71082 8.36904 38106 ft 414 kts 197°
2026-04-10 00:04 60.65634 8.33078 38107 ft 414 kts 197°
2026-04-10 00:05 60.60195 8.29260 38096 ft 414 kts 197°
2026-04-10 00:05 60.54747 8.25452 38093 ft 414 kts 197°
2026-04-10 00:06 60.49304 8.21679 38087 ft 414 kts 197°
2026-04-10 00:06 60.43888 8.17920 38084 ft 414 kts 197°
2026-04-10 00:07 60.38433 8.14158 38003 ft 416 kts 197°
2026-04-10 00:07 60.35691 8.12274 37573 ft 416 kts 197°
2026-04-10 00:07 60.32948 8.10386 37140 ft 414 kts 197°
2026-04-10 00:07 60.30239 8.08522 36749 ft 410 kts 198°
2026-04-10 00:08 60.27625 8.06248 36336 ft 409 kts 207°
2026-04-10 00:08 60.25216 8.03202 35845 ft 409 kts 212°
2026-04-10 00:08 60.23053 7.99339 34790 ft 425 kts 224°
2026-04-10 00:08 60.21014 7.94920 33730 ft 435 kts 224°
2026-04-10 00:09 60.18987 7.90454 33310 ft 428 kts 224°
2026-04-10 00:09 60.17001 7.86055 32879 ft 422 kts 224°
2026-04-10 00:09 60.15039 7.81723 32396 ft 417 kts 224°
2026-04-10 00:09 60.13098 7.77470 31911 ft 413 kts 224°
2026-04-10 00:10 60.11162 7.73255 31432 ft 408 kts 224°
2026-04-10 00:10 60.09248 7.69111 30952 ft 404 kts 223°
2026-04-10 00:10 60.07336 7.64985 30473 ft 400 kts 223°
2026-04-10 00:10 60.05470 7.60968 29997 ft 396 kts 223°
2026-04-10 00:11 60.03575 7.56899 29450 ft 393 kts 223°
2026-04-10 00:11 60.01743 7.52964 28927 ft 389 kts 223°
2026-04-10 00:11 59.99907 7.49031 28389 ft 385 kts 223°
2026-04-10 00:11 59.98090 7.45142 27867 ft 381 kts 223°
2026-04-10 00:12 59.96285 7.41284 27359 ft 378 kts 223°
2026-04-10 00:12 59.94498 7.37467 26879 ft 375 kts 223°
2026-04-10 00:12 59.92724 7.33688 26385 ft 371 kts 223°
2026-04-10 00:12 59.90967 7.29958 25926 ft 368 kts 223°
2026-04-10 00:13 59.89221 7.26257 25478 ft 365 kts 223°
2026-04-10 00:13 59.87484 7.22579 24993 ft 361 kts 222°
2026-04-10 00:13 59.85771 7.18953 24461 ft 358 kts 222°
2026-04-10 00:13 59.84079 7.15375 23800 ft 353 kts 222°
2026-04-10 00:14 59.82410 7.11853 23035 ft 349 kts 222°
2026-04-10 00:14 59.80754 7.08369 22230 ft 344 kts 222°
2026-04-10 00:14 59.79121 7.04941 21447 ft 339 kts 222°
2026-04-10 00:14 59.77510 7.01563 20652 ft 335 kts 221°
2026-04-10 00:15 59.75941 6.98275 19959 ft 330 kts 221°
2026-04-10 00:15 59.74376 6.94992 19558 ft 317 kts 221°
2026-04-10 00:15 59.71402 6.88769 18829 ft 310 kts 221°
2026-04-10 00:16 59.69930 6.85707 18465 ft 306 kts 221°
2026-04-10 00:16 59.68471 6.82675 18076 ft 301 kts 221°
2026-04-10 00:16 59.67035 6.79695 17711 ft 297 kts 220°
2026-04-10 00:16 59.65619 6.76756 17359 ft 295 kts 221°
2026-04-10 00:17 59.64214 6.73839 17011 ft 290 kts 220°
2026-04-10 00:17 59.62835 6.70977 16665 ft 287 kts 220°
2026-04-10 00:17 59.61469 6.68145 16328 ft 284 kts 220°
2026-04-10 00:17 59.60108 6.65334 15998 ft 282 kts 220°
2026-04-10 00:18 59.58755 6.62550 15663 ft 280 kts 220°
2026-04-10 00:18 59.57404 6.59773 15332 ft 279 kts 220°
2026-04-10 00:18 59.56062 6.57019 15010 ft 280 kts 220°
2026-04-10 00:18 59.54706 6.54232 14673 ft 282 kts 221°
2026-04-10 00:19 59.53349 6.51448 14333 ft 282 kts 220°
2026-04-10 00:19 59.51995 6.48669 14002 ft 280 kts 220°
2026-04-10 00:19 59.50650 6.45910 13662 ft 279 kts 220°
2026-04-10 00:19 59.49311 6.43176 13314 ft 278 kts 220°
2026-04-10 00:20 59.47973 6.40445 12971 ft 276 kts 221°
2026-04-10 00:20 59.46647 6.37735 12650 ft 273 kts 221°
2026-04-10 00:20 59.45333 6.35056 12319 ft 271 kts 221°
2026-04-10 00:20 59.44031 6.32405 11999 ft 268 kts 221°
2026-04-10 00:21 59.42760 6.29818 11686 ft 266 kts 221°
2026-04-10 00:21 59.41483 6.27222 11369 ft 263 kts 221°
2026-04-10 00:21 59.40216 6.24649 11043 ft 261 kts 221°
2026-04-10 00:21 59.38964 6.22108 10737 ft 259 kts 221°
2026-04-10 00:22 59.37716 6.19582 10436 ft 256 kts 220°
2026-04-10 00:22 59.36477 6.17081 10119 ft 254 kts 220°
2026-04-10 00:22 59.35251 6.14603 9818 ft 252 kts 220°
2026-04-10 00:22 59.34034 6.12151 9484 ft 250 kts 220°
2026-04-10 00:23 59.32825 6.09720 9178 ft 247 kts 220°
2026-04-10 00:23 59.31629 6.07314 8873 ft 245 kts 219°
2026-04-10 00:23 59.30454 6.04947 8584 ft 242 kts 219°
2026-04-10 00:23 59.29282 6.02592 8288 ft 240 kts 219°
2026-04-10 00:24 59.28134 6.00284 8001 ft 232 kts 218°
2026-04-10 00:24 59.27009 5.98026 7718 ft 232 kts 217°
2026-04-10 00:24 59.25883 5.95771 7436 ft 231 kts 217°
2026-04-10 00:24 59.24763 5.93535 7159 ft 230 kts 216°
2026-04-10 00:25 59.23646 5.91310 6878 ft 229 kts 216°
2026-04-10 00:25 59.22529 5.89088 6590 ft 228 kts 215°
2026-04-10 00:25 59.21423 5.86886 6357 ft 226 kts 215°
2026-04-10 00:25 59.20325 5.84701 6104 ft 225 kts 214°
2026-04-10 00:26 59.19231 5.82525 5823 ft 224 kts 214°
2026-04-10 00:26 59.18138 5.80354 5552 ft 224 kts 214°
2026-04-10 00:26 59.17048 5.78192 5278 ft 224 kts 214°
2026-04-10 00:26 59.15956 5.76024 5000 ft 223 kts 213°
2026-04-10 00:27 59.14883 5.73898 4732 ft 223 kts 213°
2026-04-10 00:27 59.14009 5.72169 4496 ft 223 kts 213°
2026-04-10 00:27 59.12931 5.70034 4291 ft 219 kts 213°
2026-04-10 00:27 59.11903 5.67991 4097 ft 213 kts 213°
2026-04-10 00:28 59.10869 5.65941 3969 ft 211 kts 213°
2026-04-10 00:28 59.09750 5.64226 3831 ft 198 kts 197°
2026-04-10 00:28 59.08476 5.63370 3638 ft 204 kts 180°
2026-04-10 00:28 59.07006 5.63222 3228 ft 212 kts 174°
2026-04-10 00:29 59.05601 5.63237 3080 ft 193 kts 173°
2026-04-10 00:29 59.04305 5.63274 3007 ft 187 kts 172°
2026-04-10 00:29 59.03051 5.63312 2826 ft 172 kts 172°
2026-04-10 00:29 59.01905 5.63345 2621 ft 158 kts 172°
2026-04-10 00:30 59.00838 5.63378 2411 ft 148 kts 171°
2026-04-10 00:30 58.99830 5.63410 2227 ft 143 kts 171°
2026-04-10 00:30 58.98859 5.63440 2018 ft 136 kts 170°
2026-04-10 00:30 58.97944 5.63466 1834 ft 125 kts 169°
2026-04-10 00:31 58.97100 5.63491 1665 ft 118 kts 169°
2026-04-10 00:31 58.96285 5.63518 1514 ft 116 kts 169°
2026-04-10 00:31 58.95485 5.63544 1349 ft 115 kts 169°
2026-04-10 00:31 58.94685 5.63569 1186 ft 115 kts 170°
2026-04-10 00:32 58.93890 5.63594 1015 ft 114 kts 170°
2026-04-10 00:32 58.93105 5.63619 842 ft 115 kts 171°
2026-04-10 00:32 58.92289 5.63643 669 ft 116 kts 174°
2026-04-10 00:32 58.91478 5.63667 498 ft 117 kts 176°
2026-04-10 00:33 58.90669 5.63692 338 ft 118 kts 178°
2026-04-10 00:33 58.89852 5.63720 162 ft 118 kts 176°
2026-04-10 00:33 58.89044 5.63736 27 ft 108 kts 177°
2026-04-10 00:33 58.88434 5.63761 30 ft 64 kts 179°
2026-04-10 00:34 58.88147 5.63770 32 ft 31 kts 179°
2026-04-10 00:34 58.87917 5.63776 33 ft 35 kts 179°
2026-04-10 00:34 58.87707 5.63782 34 ft 8 kts 180°
2026-04-10 00:34 58.87698 5.63665 33 ft 12 kts 286°
2026-04-10 00:35 58.87725 5.63482 32 ft 16 kts 285°
2026-04-10 00:35 58.87768 5.63290 30 ft 14 kts 330°
2026-04-10 00:35 58.87874 5.63312 29 ft 16 kts 26°
2026-04-10 00:35 58.87967 5.63389 31 ft 9 kts 24°
2026-04-10 00:36 58.88046 5.63437 30 ft 14 kts
2026-04-10 00:36 58.88154 5.63431 30 ft 17 kts 359°
2026-04-10 00:36 58.88255 5.63428 31 ft 9 kts 356°
2026-04-10 00:36 58.88275 5.63356 32 ft 4 kts 265°
2026-04-10 00:37 58.88287 5.63266 30 ft 10 kts 311°
2026-04-10 00:37 58.88338 5.63239 29 ft 4 kts 341°
2026-04-10 00:37 58.88331 5.63176 27 ft 8 kts 250°
2026-04-10 00:37 58.88319 5.63102 25 ft 2 kts 253°
2026-04-10 00:38 58.88317 5.63089 28 ft 1 kts 254°
2026-04-10 00:38 58.88315 5.63075 29 ft 0 kts 254°